SCP
0 0 0 0 0 -0 0 0 0 0 0 0 0 0 -0 -0 -0 0 0 0 0 0 0 0 -0 -0 0 0 0 0 0 0 0 0 0 0 0 0 0 0 0 0 0 0
0 0 0 0 0 0 0 0 0 0 0 0 0 0 0 0 -0 0 0 0 0 0 0 0 0 0 0 0 0 0 0 0 0 0 0 0 0 0 0 0 0 0 0 0
0 0 0 0 0 0 0 0 0 0 0 0 0 0 0 0 0 0 0 0 0 0 0 0 0 0 0 0 0 0 0 0 0 0 0 0 0 0 0 0 0 0 0 0
0 0 0 0 0 0 0 0 0 0 0 0 0 0 0 0 0 0 0 0 0 0 0 0 0 0 0 0 0 0 0 0 0 0 0 0 0 0 0 0 0 0 0 0
0 0 0 0 0 0 0 0 0 0 0 0 0 0 0 0 0 0 0 0 0 0 0 0 0 0 0 0 0 0 0 0 0 0 0 0 0 0 0 0 0 0 0 0
0 0 0 0 0 0 0 0 0 0 0 0 0 0 0 0 0 0 0 0 0 0 0 0 0 0 0 0 0 0 0 0 0 0 0 0 0 0 0 0 0 0 0 0
0 0 0 0 0 0 0 0 0 0 0 0 0 0 0 0 0 0 0 0 0 0 0 0 0 0 0 0 0 0 0 0 0 0 0 0 0 0 0 0 0 0 0 0
0 0 0 0 0 0 0 0 0 0 0 0 0 0 0 0 0 0 0 0 0 0 0 0 0 0 0 0 0 0 0 0 0 0 0 0 0 0 0 0 0 0 0 0
0 0 0 0 0 0 0 0 0 0 0 0 0 0 0 0 0 0 0 0 0 0 0 0 0 0 0 0 0 0 0 0 0 0 0 0 0 0 0 0 0 0 0 0
0 0 0 0 0 0 0 0 0 0 0 0 0 0 0 0 0 0 0 0 0 0 0 0 0 0 0 0 0 0 0 0 0 0 0 0 0 0 0 0 0 0 0 0
0 0 0 0 0 0 0 0 0 0 0 0 0 0 0 0 0 0 0 0 0 0 0 0 0 0 0 0 0 0 0 0 0 0 0 0 0 0 0 0 0 0 0 0
0 0 0 0 0 0 0 0 0 0 0 0 0 0 0 0 0 0 0 0 0 0 0 0 0 0 0 0 0 0 0 0 0 0 0 0 0 0 0 0 0 0 0 0
0 0 0 0 0 0 0 0 0 0 0 0 0 0 0 0 0 0 0 0 0 0 0 0 0 0 0 0 0 0 0 0 0 0 0 0 0 0 0 0 0 0 0 0
0 0 0 0 0 0 0 0 0 0 0 0 0 0 0 0 0 0 0 0 0 0 0 0 0 0 0 0 0 0 0 0 0 0 0 0 0 0 0 0 0 0 0 0
0 0 0 0 0 0 0 0 0 0 0 0 0 0 0 0 0 0 0 0 0 0 0 0 0 0 0 0 0 0 0 0 0 0 0 0 0 0 0 0 0 0 0 0
0 0 0 0 0 0 0 0 0 0 0 0 0 0 0 0 0 0 0 0 0 0 0 0 0 0 0 0 0 0 0 0 0 0 0 0 0 0 0 0 0 0 0 0
0 0 0 0 0 0 0 0 0 0 0 0 0 0 0 0 0 0 0 0 0 0 0 0 0 0 0 0 0 0 0 0 0 0 0 0 0 0 0 0 0 0 0 0
0 0 0 0 0 0 0 0 0 0 0 0 0 0 0 0 0 0 0 0 0 0 0 0 0 0 0 0 0 0 0 0 0 0 0 0 0 0 0 0 0 0 0 0
0 0 0 0 0 0 0 0 0 0 0 0 0 0 0 0 0 0 0 0 0 0 0 0 0 0 0 0 0 0 0 0 0 0 0 0 0 0 0 0 0 0 0 0
0 0 0 0 0 0 0 0 0 0 0 0 0 0 0 0 0 0 0 0 0 0 0 0 0 0 0 0 0 0 0 0 0 0 0 0 0 0 0 0 0 0 0 0
0 0 0 0 0 0 0 0 0 0 0 0 0 0 0 0 0 0 0 0 0 0 0 0 0 0 0 0 0 0 0 0 0 0 0 0 0 0 0 0 0 0 0 0
0 0 0 0 0 0 0 0 0 0 0 0 0 0 0 0 0 0 0 0 0 0 0 0 0 0 0 0 0 0 0 0 0 0 0 0 0 0 0 0 0 0 0 0
0 0 0 0 0 0 0 0 0 0 0 0 0 0 0 0 0 0 0 0 0 0 0 0 0 0 0 0 0 0 0 0 0 0 0 0 0 0 0 0 0 0 0 0
0 0 0 0 0 0 0 0 0 0 0 0 0 0 0 0 0 0 0 0 0 0 0 0 0 0 0 0 0 0 0 0 0 0 0 0 0 0 0 0 0 0 0 0
0 0 0 0 0 0 0 0 0 0 0 0 0 0 0 0 0 0 0 0 0 0 0 0 0 0 0 0 0 0 0 0 0 0 0 0 0 0 0 0 0 0 0 0
0 0 0 0 0 0 0 0 0 0 0 0 0 0 0 0 0 0 0 0 0 0 0 0 0 0 0 0 0 0 0 0 0 0 0 0 0 0 0 0 0 0 0 0
0 0 0 0 0 0 0 0 0 0 0 0 0 0 0 0 0 0 0 0 0 0 0 0 0 0 0 0 0 0 0 0 0 0 0 0 0 0 0 0 0 0 0 0
Wind_Speed_500mb
22 26 28 31 31 26 15 3 5 7 25 8 4 7 8 1 4 8 5 3 3 2 3 5 5 9 3 8 7 10 3 6 6 5 3 3 4 5 3 1 1 1 4 14
21 24 26 28 30 28 20 6 5 10 17 7 4 1 2 2 3 5 6 4 3 4 5 5 1 2 4 8 2 11 14 4 7 5 6 5 4 5 7 9 2 7 8 10
19 21 22 24 23 23 19 4 2 5 8 8 10 8 3 1 4 6 5 5 2 3 5 7 5 3 8 3 5 10 8 6 4 6 4 5 7 5 5 3 3 7 15 25
16 17 17 19 19 17 14 9 5 3 4 5 7 6 5 3 4 4 2 2 2 4 3 1 4 3 2 5 3 6 4 7 3 5 5 3 3 4 9 8 7 9 17 12
16 16 14 14 15 13 9 5 3 5 4 3 7 3 3 7 3 5 1 3 2 6 6 4 6 7 5 1 6 5 4 6 5 5 1 3 4 5 5 6 5 13 15 16
17 15 13 11 13 12 7 7 6 4 6 3 5 7 8 6 1 6 4 7 4 4 2 3 7 13 14 7 3 5 4 10 5 4 2 3 8 7 5 6 8 6 12 7
19 16 14 11 11 10 8 5 3 3 3 1 3 5 4 6 2 3 6 3 2 3 31 37 29 26 24 23 21 8 9 9 2 5 4 8 4 6 8 13 21 13 12 8
23 19 16 12 10 9 8 3 2 3 3 1 1 1 1 3 4 3 2 4 2 18 8 4 5 2 3 9 15 12 5 8 6 4 6 7 7 9 10 12 14 7 9 2
27 24 20 16 12 10 9 6 7 4 4 5 4 2 2 0 1 1 3 2 7 11 3 4 7 7 5 5 5 8 13 13 1 5 7 15 8 3 8 8 13 5 6 5
31 27 24 20 16 14 11 8 12 9 4 5 6 4 1 2 2 1 5 6 3 5 4 4 5 6 2 8 8 5 3 4 6 5 9 10 12 7 10 7 6 6 3 3
33 29 25 22 19 16 13 13 17 17 7 5 7 6 5 3 2 3 1 3 1 3 5 5 6 5 6 5 3 4 4 5 5 4 6 15 2 10 9 2 7 8 4 4
33 30 27 24 20 17 16 16 19 20 14 9 12 12 9 5 2 1 1 1 2 4 6 3 5 5 5 5 6 1 6 6 2 12 5 1 6 7 11 6 4 8 7 9
32 31 28 25 22 19 20 20 19 16 12 22 31 23 19 12 10 6 3 3 5 3 6 8 4 4 5 8 7 5 7 5 5 4 7 14 11 17 14 10 4 11 8 5
30 29 27 24 23 22 21 23 23 21 5 5 5 18 32 22 17 9 5 5 6 8 6 3 3 3 7 5 0 7 3 18 10 8 12 10 12 17 18 13 14 7 7 4
31 29 27 24 23 21 20 22 23 26 11 3 8 8 12 29 23 13 7 5 7 5 2 2 2 5 7 3 2 7 17 12 10 14 14 8 5 15 22 17 10 10 6 2
32 30 27 25 24 22 22 10 24 23 20 6 4 3 7 24 26 18 11 8 7 6 4 3 3 6 3 6 8 9 28 26 24 6 17 21 11 21 19 18 16 12 5 8
31 29 28 27 27 31 17 8 9 32 21 6 6 1 10 25 23 16 9 7 4 4 5 3 4 6 4 3 9 13 25 28 27 22 17 13 27 19 23 20 17 11 6 8
29 27 26 26 26 30 21 6 7 30 15 5 3 2 7 23 10 8 10 7 6 3 3 3 4 4 3 8 24 30 23 25 22 27 25 17 26 22 25 22 18 12 9 10
28 27 25 21 20 16 24 10 9 21 9 4 5 7 7 23 10 10 10 10 4 4 6 6 9 5 10 15 18 17 16 14 13 36 33 20 27 28 29 26 19 11 6 12
32 35 14 12 21 21 29 12 8 10 12 9 7 7 6 13 7 5 9 4 4 5 4 11 7 8 28 29 25 18 14 14 19 22 25 29 33 36 33 25 16 8 7 15
34 12 7 25 37 24 12 7 8 8 6 13 9 19 8 14 9 7 6 6 7 6 7 8 6 7 11 16 27 37 40 23 22 27 30 34 35 44 37 25 14 5 7 7
20 19 28 34 10 7 8 5 4 8 7 9 9 10 12 12 13 6 10 5 6 8 16 7 6 9 20 21 13 11 32 22 15 19 19 31 40 36 29 19 9 2 5 8
33 11 12 8 5 4 12 15 7 6 8 10 10 10 15 10 9 6 6 10 9 13 8 6 8 5 6 7 14 8 28 36 28 26 29 35 40 33 22 13 12 13 10 9
8 9 7 4 4 5 5 5 6 4 7 5 12 9 6 7 9 6 9 5 8 7 8 10 3 3 9 4 4 11 14 26 32 35 36 44 41 31 21 17 16 12 3 11
5 4 5 4 2 3 6 2 4 9 4 6 11 6 6 5 5 6 5 9 10 7 8 1 9 15 18 13 7 10 13 19 27 36 49 45 34 26 21 15 10 4 6 12
4 4 5 5 7 5 3 7 8 6 6 8 5 4 5 7 4 9 11 6 9 4 3 10 17 17 14 10 7 11 17 23 38 49 45 36 29 24 17 3 7 14 13 14
4 4 8 8 5 6 6 9 7 9 5 3 2 5 4 1 5 8 4 2 4 5 3 8 16 18 13 5 4 7 18 37 47 43 38 32 26 17 13 11 15 20 17 16
Wind_Direction_500mb
328 335 339 344 345 350 344 55 103 156 161 78 46 142 176 270 326 327 290 267 258 57 77 96 164 216 250 335 205 149 94 114 131 94 92 268 75 103 120 30 275 169 314 283
321 330 338 347 352 358 10 23 95 152 174 136 135 185 129 239 338 320 326 307 358 9 87 110 110 115 3 353 193 160 177 57 113 131 158 130 100 102 98 97 98 219 287 287
312 324 335 343 354 356 2 11 92 94 145 109 138 139 125 299 323 262 281 285 176 122 61 27 132 94 15 9 100 108 112 100 172 213 111 112 156 135 135 202 239 303 263 298
302 314 329 338 348 356 1 19 70 73 121 97 122 103 126 115 310 235 310 240 222 142 132 85 112 137 156 77 76 57 64 103 111 93 91 154 162 177 181 237 279 263 320 285
289 305 322 334 343 357 18 56 67 82 70 68 125 46 164 187 246 249 36 219 147 187 165 198 186 158 199 127 58 68 13 127 137 147 104 10 248 264 256 243 246 260 277 285
275 291 307 327 343 6 36 61 55 48 6 72 157 161 163 173 209 233 263 294 175 186 315 103 77 95 85 90 118 112 74 138 156 177 4 0 275 229 210 277 245 259 274 337
263 277 294 311 337 354 19 41 50 15 90 339 121 156 200 179 219 272 348 62 133 88 119 95 88 85 82 72 53 51 129 112 87 133 159 248 1 251 274 264 280 249 263 282
256 264 278 290 306 319 325 333 98 72 105 274 183 172 293 305 312 220 264 46 101 157 172 94 126 66 159 58 41 39 62 129 108 200 214 326 244 213 201 203 283 227 242 201
250 257 265 271 276 281 285 269 203 154 136 214 242 263 354 319 24 198 236 66 143 170 126 144 165 182 173 176 131 49 72 73 180 160 228 270 285 150 155 153 281 184 217 232
245 249 254 256 257 260 255 238 204 189 228 222 199 210 229 173 117 263 303 331 134 133 127 133 166 185 247 182 187 169 110 70 238 176 249 276 252 172 147 229 299 163 183 333
236 240 245 246 241 243 238 223 206 201 228 247 212 197 205 186 208 227 288 196 215 80 137 185 164 192 176 185 108 173 171 167 210 152 265 284 87 137 219 341 170 160 143 105
227 229 234 237 231 226 219 211 208 212 224 244 226 212 189 209 166 12 317 247 147 178 107 175 135 159 174 160 206 81 201 221 246 203 257 273 234 243 275 222 245 198 164 131
219 217 220 224 221 213 207 203 196 202 245 266 253 237 225 227 231 227 273 226 178 167 137 142 117 190 160 176 214 161 216 151 214 210 210 257 262 247 256 266 236 158 141 142
208 205 207 211 210 205 200 192 189 194 211 266 259 230 231 231 215 217 250 241 175 141 130 117 141 192 200 191 121 230 91 165 188 244 265 270 250 239 227 218 170 154 173 160
196 196 197 198 201 198 190 188 191 201 205 288 291 297 219 202 199 211 214 176 177 165 146 150 173 122 172 152 145 202 193 180 204 254 208 213 221 203 186 171 173 180 174 88
187 188 191 191 189 180 156 185 208 205 215 255 290 259 187 183 187 194 201 217 220 195 165 156 168 191 238 224 242 238 222 223 223 251 255 221 212 179 177 181 182 184 220 315
183 183 186 187 183 175 172 182 186 190 182 224 267 213 173 171 170 173 173 185 192 182 178 190 171 177 208 228 251 243 251 250 249 223 179 168 180 184 180 188 188 202 261 312
178 177 179 182 182 183 186 151 161 180 181 227 238 203 164 176 164 154 173 171 163 149 153 170 207 174 213 249 243 253 258 246 228 210 205 225 199 181 182 192 198 208 251 294
168 165 162 160 170 168 187 167 153 176 188 212 194 192 180 169 156 147 153 169 182 211 216 207 180 180 224 226 235 247 247 228 232 225 219 219 192 191 194 196 192 217 270 311
156 150 150 159 164 156 161 167 175 181 208 225 238 193 176 168 161 131 134 152 171 212 183 147 219 256 256 249 240 240 247 251 228 192 184 192 190 194 192 188 190 219 297 319
150 153 135 145 141 136 166 182 189 185 217 207 216 193 153 180 174 149 202 162 166 223 157 207 202 260 249 257 258 248 239 248 227 224 230 229 218 200 192 183 193 238 315 350
151 128 129 137 158 146 156 185 184 216 219 192 185 194 181 168 172 159 172 187 182 231 144 199 212 247 250 266 285 236 199 196 200 209 216 207 203 190 183 183 192 193 113 60
138 124 157 159 155 147 187 182 184 208 189 185 173 177 167 157 173 111 167 187 212 131 193 222 229 221 258 262 222 222 209 218 224 221 209 203 184 178 176 175 154 137 105 36
145 164 141 211 171 225 186 162 133 141 141 150 173 152 177 163 163 145 190 156 162 210 207 215 196 234 283 295 172 205 228 223 219 211 197 182 177 171 166 157 157 138 77 2
126 151 139 160 123 131 143 135 131 147 131 132 147 138 173 154 163 202 140 177 226 220 201 98 336 306 299 294 255 231 234 224 203 190 177 172 167 163 157 161 173 223 310 328
92 101 100 106 138 157 161 128 122 119 134 136 141 154 181 198 211 184 208 206 200 131 36 338 337 336 317 301 270 232 221 200 178 170 168 164 157 152 154 161 294 280 289 309
68 79 131 136 116 141 153 139 109 86 137 132 138 200 184 68 220 199 190 245 72 72 20 35 29 22 16 7 216 202 193 174 169 167 165 170 179 189 205 205 255 266 277 297
Wind_Speed_850mb
22 26 28 31 31 26 15 3 5 7 25 8 4 7 8 1 4 8 5 3 3 2 3 5 5 9 3 8 7 10 3 6 6 5 3 3 4 5 3 1 1 1 4 14
21 24 26 28 30 28 20 6 5 10 17 7 4 1 2 2 3 5 6 4 3 4 5 5 1 2 4 8 2 11 14 4 7 5 6 5 4 5 7 9 2 7 8 10
19 21 22 24 23 23 19 4 2 5 8 8 10 8 3 1 4 6 5 5 2 3 5 7 5 3 8 3 5 10 8 6 4 6 4 5 7 5 5 3 3 7 15 25
16 17 17 19 19 17 14 9 5 3 4 5 7 6 5 3 4 4 2 2 2 4 3 1 4 3 2 5 3 6 4 7 3 5 5 3 3 4 9 8 7 9 17 12
16 16 14 14 15 13 9 5 3 5 4 3 7 3 3 7 3 5 1 3 2 6 6 4 6 7 5 1 6 5 4 6 5 5 1 3 4 5 5 6 5 13 15 16
17 15 13 11 13 12 7 7 6 4 6 3 5 7 8 6 1 6 4 7 4 4 2 3 7 13 14 7 3 5 4 10 5 4 2 3 8 7 5 6 8 6 12 7
19 16 14 11 11 10 8 5 3 3 3 1 3 5 4 6 2 3 6 3 2 3 31 37 29 26 24 23 21 8 9 9 2 5 4 8 4 6 8 13 21 13 12 8
23 19 16 12 10 9 8 3 2 3 3 1 1 1 1 3 4 3 2 4 2 18 8 4 5 2 3 9 15 12 5 8 6 4 6 7 7 9 10 12 14 7 9 2
27 24 20 16 12 10 9 6 7 4 4 5 4 2 2 0 1 1 3 2 7 11 3 4 7 7 5 5 5 8 13 13 1 5 7 15 8 3 8 8 13 5 6 5
31 27 24 20 16 14 11 8 12 9 4 5 6 4 1 2 2 1 5 6 3 5 4 4 5 6 2 8 8 5 3 4 6 5 9 10 12 7 10 7 6 6 3 3
33 29 25 22 19 16 13 13 17 17 7 5 7 6 5 3 2 3 1 3 1 3 5 5 6 5 6 5 3 4 4 5 5 4 6 15 2 10 9 2 7 8 4 4
33 30 27 24 20 17 16 16 19 20 14 9 12 12 9 5 2 1 1 1 2 4 6 3 5 5 5 5 6 1 6 6 2 12 5 1 6 7 11 6 4 8 7 9
32 31 28 25 22 19 20 20 19 16 12 22 31 23 19 12 10 6 3 3 5 3 6 8 4 4 5 8 7 5 7 5 5 4 7 14 11 17 14 10 4 11 8 5
30 29 27 24 23 22 21 23 23 21 5 5 5 18 32 22 17 9 5 5 6 8 6 3 3 3 7 5 0 7 3 18 10 8 12 10 12 17 18 13 14 7 7 4
31 29 27 24 23 21 20 22 23 26 11 3 8 8 12 29 23 13 7 5 7 5 2 2 2 5 7 3 2 7 17 12 10 14 14 8 5 15 22 17 10 10 6 2
32 30 27 25 24 22 22 10 24 23 20 6 4 3 7 24 26 18 11 8 7 6 4 3 3 6 3 6 8 9 28 26 24 6 17 21 11 21 19 18 16 12 5 8
31 29 28 27 27 31 17 8 9 32 21 6 6 1 10 25 23 16 9 7 4 4 5 3 4 6 4 3 9 13 25 28 27 22 17 13 27 19 23 20 17 11 6 8
29 27 26 26 26 30 21 6 7 30 15 5 3 2 7 23 10 8 10 7 6 3 3 3 4 4 3 8 24 30 23 25 22 27 25 17 26 22 25 22 18 12 9 10
28 27 25 21 20 16 24 10 9 21 9 4 5 7 7 23 10 10 10 10 4 4 6 6 9 5 10 15 18 17 16 14 13 36 33 20 27 28 29 26 19 11 6 12
32 35 14 12 21 21 29 12 8 10 12 9 7 7 6 13 7 5 9 4 4 5 4 11 7 8 28 29 25 18 14 14 19 22 25 29 33 36 33 25 16 8 7 15
34 12 7 25 37 24 12 7 8 8 6 13 9 19 8 14 9 7 6 6 7 6 7 8 6 7 11 16 27 37 40 23 22 27 30 34 35 44 37 25 14 5 7 7
20 19 28 34 10 7 8 5 4 8 7 9 9 10 12 12 13 6 10 5 6 8 16 7 6 9 20 21 13 11 32 22 15 19 19 31 40 36 29 19 9 2 5 8
33 11 12 8 5 4 12 15 7 6 8 10 10 10 15 10 9 6 6 10 9 13 8 6 8 5 6 7 14 8 28 36 28 26 29 35 40 33 22 13 12 13 10 9
8 9 7 4 4 5 5 5 6 4 7 5 12 9 6 7 9 6 9 5 8 7 8 10 3 3 9 4 4 11 14 26 32 35 36 44 41 31 21 17 16 12 3 11
5 4 5 4 2 3 6 2 4 9 4 6 11 6 6 5 5 6 5 9 10 7 8 1 9 15 18 13 7 10 13 19 27 36 49 45 34 26 21 15 10 4 6 12
4 4 5 5 7 5 3 7 8 6 6 8 5 4 5 7 4 9 11 6 9 4 3 10 17 17 14 10 7 11 17 23 38 49 45 36 29 24 17 3 7 14 13 14
4 4 8 8 5 6 6 9 7 9 5 3 2 5 4 1 5 8 4 2 4 5 3 8 16 18 13 5 4 7 18 37 47 43 38 32 26 17 13 11 15 20 17 16
Wind_Direction_850mb
328 335 339 344 345 350 344 55 103 156 161 78 46 142 176 270 326 327 290 267 258 57 77 96 164 216 250 335 205 149 94 114 131 94 92 268 75 103 120 30 275 169 314 283
321 330 338 347 352 358 10 23 95 152 174 136 135 185 129 239 338 320 326 307 358 9 87 110 110 115 3 353 193 160 177 57 113 131 158 130 100 102 98 97 98 219 287 287
312 324 335 343 354 356 2 11 92 94 145 109 138 139 125 299 323 262 281 285 176 122 61 27 132 94 15 9 100 108 112 100 172 213 111 112 156 135 135 202 239 303 263 298
302 314 329 338 348 356 1 19 70 73 121 97 122 103 126 115 310 235 310 240 222 142 132 85 112 137 156 77 76 57 64 103 111 93 91 154 162 177 181 237 279 263 320 285
289 305 322 334 343 357 18 56 67 82 70 68 125 46 164 187 246 249 36 219 147 187 165 198 186 158 199 127 58 68 13 127 137 147 104 10 248 264 256 243 246 260 277 285
275 291 307 327 343 6 36 61 55 48 6 72 157 161 163 173 209 233 263 294 175 186 315 103 77 95 85 90 118 112 74 138 156 177 4 0 275 229 210 277 245 259 274 337
263 277 294 311 337 354 19 41 50 15 90 339 121 156 200 179 219 272 348 62 133 88 119 95 88 85 82 72 53 51 129 112 87 133 159 248 1 251 274 264 280 249 263 282
256 264 278 290 306 319 325 333 98 72 105 274 183 172 293 305 312 220 264 46 101 157 172 94 126 66 159 58 41 39 62 129 108 200 214 326 244 213 201 203 283 227 242 201
250 257 265 271 276 281 285 269 203 154 136 214 242 263 354 319 24 198 236 66 143 170 126 144 165 182 173 176 131 49 72 73 180 160 228 270 285 150 155 153 281 184 217 232
245 249 254 256 257 260 255 238 204 189 228 222 199 210 229 173 117 263 303 331 134 133 127 133 166 185 247 182 187 169 110 70 238 176 249 276 252 172 147 229 299 163 183 333
236 240 245 246 241 243 238 223 206 201 228 247 212 197 205 186 208 227 288 196 215 80 137 185 164 192 176 185 108 173 171 167 210 152 265 284 87 137 219 341 170 160 143 105
227 229 234 237 231 226 219 211 208 212 224 244 226 212 189 209 166 12 317 247 147 178 107 175 135 159 174 160 206 81 201 221 246 203 257 273 234 243 275 222 245 198 164 131
219 217 220 224 221 213 207 203 196 202 245 266 253 237 225 227 231 227 273 226 178 167 137 142 117 190 160 176 214 161 216 151 214 210 210 257 262 247 256 266 236 158 141 142
208 205 207 211 210 205 200 192 189 194 211 266 259 230 231 231 215 217 250 241 175 141 130 117 141 192 200 191 121 230 91 165 188 244 265 270 250 239 227 218 170 154 173 160
196 196 197 198 201 198 190 188 191 201 205 288 291 297 219 202 199 211 214 176 177 165 146 150 173 122 172 152 145 202 193 180 204 254 208 213 221 203 186 171 173 180 174 88
187 188 191 191 189 180 156 185 208 205 215 255 290 259 187 183 187 194 201 217 220 195 165 156 168 191 238 224 242 238 222 223 223 251 255 221 212 179 177 181 182 184 220 315
183 183 186 187 183 175 172 182 186 190 182 224 267 213 173 171 170 173 173 185 192 182 178 190 171 177 208 228 251 243 251 250 249 223 179 168 180 184 180 188 188 202 261 312
178 177 179 182 182 183 186 151 161 180 181 227 238 203 164 176 164 154 173 171 163 149 153 170 207 174 213 249 243 253 258 246 228 210 205 225 199 181 182 192 198 208 251 294
168 165 162 160 170 168 187 167 153 176 188 212 194 192 180 169 156 147 153 169 182 211 216 207 180 180 224 226 235 247 247 228 232 225 219 219 192 191 194 196 192 217 270 311
156 150 150 159 164 156 161 167 175 181 208 225 238 193 176 168 161 131 134 152 171 212 183 147 219 256 256 249 240 240 247 251 228 192 184 192 190 194 192 188 190 219 297 319
150 153 135 145 141 136 166 182 189 185 217 207 216 193 153 180 174 149 202 162 166 223 157 207 202 260 249 257 258 248 239 248 227 224 230 229 218 200 192 183 193 238 315 350
151 128 129 137 158 146 156 185 184 216 219 192 185 194 181 168 172 159 172 187 182 231 144 199 212 247 250 266 285 236 199 196 200 209 216 207 203 190 183 183 192 193 113 60
138 124 157 159 155 147 187 182 184 208 189 185 173 177 167 157 173 111 167 187 212 131 193 222 229 221 258 262 222 222 209 218 224 221 209 203 184 178 176 175 154 137 105 36
145 164 141 211 171 225 186 162 133 141 141 150 173 152 177 163 163 145 190 156 162 210 207 215 196 234 283 295 172 205 228 223 219 211 197 182 177 171 166 157 157 138 77 2
126 151 139 160 123 131 143 135 131 147 131 132 147 138 173 154 163 202 140 177 226 220 201 98 336 306 299 294 255 231 234 224 203 190 177 172 167 163 157 161 173 223 310 328
92 101 100 106 138 157 161 128 122 119 134 136 141 154 181 198 211 184 208 206 200 131 36 338 337 336 317 301 270 232 221 200 178 170 168 164 157 152 154 161 294 280 289 309
68 79 131 136 116 141 153 139 109 86 137 132 138 200 184 68 220 199 190 245 72 72 20 35 29 22 16 7 216 202 193 174 169 167 165 170 179 189 205 205 255 266 277 297